Current Version              Previous Version:    01  02  03  04  05  06  07  08  09  10  11  12  13  14  15  16  17  18  19  20  21  22  23  24  25  26  27  28  29  30  
   31  32  33  34  35  36  37  38  39  40  41  42  43  44  45  46  47  48  49  50  51  52  53  54  55  56  57  58  59  60  

[Printable]
059
ASUS44 KFWD 190001
RWRTX
NORTH TEXAS HOURLY WEATHER ROUNDUP
NATIONAL WEATHER SERVICE FORT WORTH TX
700 PM CDT FRI APR 18 2014

NOTE: "FAIR" INDICATES FEW OR NO CLOUDS BELOW 12,000 FEET WITH NO
SIGNIFICANT WEATHER AND/OR OBSTRUCTIONS TO VISIBILITY.

TXZ118-119-190100-
DALLAS/FORT WORTH METROPLEX

CITY           SKY/WX    TMP DP  RH WIND       PRES   REMARKS
DFW AIRPORT    MOSUNNY   74  44  34 CALM      30.12R
6HR MIN TEMP:  71; 6HR MAX TEMP:  76;

DALLAS LOVE    MOSUNNY   75  43  31 MISG      30.12R
6HR MIN TEMP:  71; 6HR MAX TEMP:  78;

FTW MEACHAM    PTSUNNY   73  51  46 CALM      30.11S
6HR MIN TEMP:  69; 6HR MAX TEMP:  76;

DAL-EXECUTIVE  SUNNY     74  44  34 CALM      30.12R
6HR MIN TEMP:  72; 6HR MAX TEMP:  78;

FTW-ALLIANCE   PTSUNNY   71  51  49 CALM      30.12S
6HR MIN TEMP:  67; 6HR MAX TEMP:  75;

FTW-NAS-JRB    MOSUNNY   75  45  34 VRB6      30.16S
6HR MIN TEMP:  72; 6HR MAX TEMP:  79;

FTW-SPINKS     MOSUNNY   73  46  38 CALM      30.13S
ARLINGTON      MOSUNNY   73  48  41 SE6       30.12R
6HR MIN TEMP:  70; 6HR MAX TEMP:  78;

GRAND PRAIRIE  SUNNY     73  43  33 CALM      30.14
ADDISON        MOSUNNY   73  41  31 E5        30.12S
$$

TXZ091>094-102>105-117-120-121-131>134-190100-
NORTH CENTRAL TEXAS

CITY           SKY/WX    TMP DP  RH WIND       PRES   REMARKS
SHRMAN/DENISON SUNNY     73  41  32 CALM      30.13S
6HR MIN TEMP:  69; 6HR MAX TEMP:  74;

DENTON         MOSUNNY   72  50  46 SW3       30.12S
6HR MIN TEMP:  69; 6HR MAX TEMP:  76;

MCKINNEY       SUNNY     72  45  37 E3        30.12S
6HR MIN TEMP:  70; 6HR MAX TEMP:  75;

ROCKWALL       SUNNY     75  46  35 NE5       30.11S
6HR MIN TEMP:  71; 6HR MAX TEMP:  78;

TERRELL        SUNNY     74  44  34 NE6       30.12F
6HR MIN TEMP:  70; 6HR MAX TEMP:  76;

$$

TXZ083>090-098>101-113>116-127>130-139>142-154-155-190100-
WESTERN NORTH TEXAS

CITY           SKY/WX    TMP DP  RH WIND       PRES   REMARKS
WICHITA FALLS  PTSUNNY   70  50  49 SW8       30.12S
6HR MIN TEMP:  65; 6HR MAX TEMP:  73;

ABILENE        PTSUNNY   72  44  36 S8G20     30.11F
6HR MIN TEMP:  64; 6HR MAX TEMP:  74;

BRECKENRIDGE   PTSUNNY   73  46  39 SE7       30.11F
6HR MIN TEMP:  64; 6HR MAX TEMP:  74;

MINERAL WELLS  PTSUNNY   71  50  47 E3        30.11F
6HR MIN TEMP:  66; 6HR MAX TEMP:  75;

BROWNWOOD      PTSUNNY   72  48  43 E5        30.11F
$$

TXZ143>147-156>162-174-175-190100-
CENTRAL TEXAS

CITY           SKY/WX    TMP DP  RH WIND       PRES   REMARKS
WACO           SUNNY     72  53  51 CALM      30.12S
6HR MIN TEMP:  70; 6HR MAX TEMP:  76;

WACO-MCGREGOR  SUNNY     73  52  46 NE5       30.14S
6HR MIN TEMP:  70; 6HR MAX TEMP:  77;

HILLSBORO      MOSUNNY   73  49  43 NE5       30.13S
6HR MIN TEMP:  70; 6HR MAX TEMP:  75;

CORSICANA      SUNNY     74  48  39 N5        30.14R
6HR MIN TEMP:  72; 6HR MAX TEMP:  77;

MEXIA          SUNNY     71  51  49 N3        30.12R
6HR MIN TEMP:  70; 6HR MAX TEMP:  74;

TEMPLE         MOSUNNY   72  52  49 NE6       30.15S
6HR MIN TEMP:  70; 6HR MAX TEMP:  75;

KILLEEN        PTSUNNY   72  52  49 SE6       30.12S
KILLEEN-SKYLRK MOSUNNY   72  52  49 E5        30.12R
6HR MIN TEMP:  68; 6HR MAX TEMP:  75;

LAMPASAS       PTSUNNY   73  54  50 E5        30.12S
6HR MIN TEMP:  71; 6HR MAX TEMP:  76;

$$

TXZ095>097-106>112-122>126-135>138-148>153-164>167-190100-
EAST TEXAS

CITY           SKY/WX    TMP DP  RH WIND       PRES   REMARKS
PARIS          SUNNY     72  46  40 SE8       30.13S
6HR MIN TEMP:  70; 6HR MAX TEMP:  73;

TYLER          PTSUNNY   74  46  36 E7        30.11S
6HR MIN TEMP:  72; 6HR MAX TEMP:  77;

LONGVIEW       CLEAR     73  50  44 NE5       30.11S
6HR MIN TEMP:  70; 6HR MAX TEMP:  76;

ATHENS         SUNNY     72  46  40 SE5       30.10S
NACOGDOCHES    PTCLDY    72  52  49 E3        30.12S
6HR MIN TEMP:  72; 6HR MAX TEMP:  75;

LUFKIN         CLEAR     75  51  43 E6        30.11R
6HR MIN TEMP:  75; 6HR MAX TEMP:  81;

$$

SUPPLEMENTAL OBSERVATIONS (CENTRAL)

CITY           SKY/WX    TMP DP  RH WIND       PRES   REMARKS
$$

SUPPLEMENTAL OBSERVATIONS (WEST)

CITY           SKY/WX    TMP DP  RH WIND       PRES   REMARKS
$$

SUPPLEMENTAL OBSERVATIONS (EAST)

CITY           SKY/WX    TMP DP  RH WIND       PRES   REMARKS
$$

SUPPLEMENTAL OBSERVATIONS ARE A COLLECTION OF AUTOMATED INSTRUMENTS
THAT ARE MAINTAINED BY A VARIETY OF FEDERAL AND STATE AGENCIES.
CERTAIN ELEMENTS...SUCH AS HUMIDITY VALUES AND SUSTAINED WIND
SPEEDS...MAY BE APPROXIMATED.